Simultaneous Nadir Overpasses (SNOs) Predictions

Prediction of SNOs between AQUA and NPP Satellite Orbit:

Table of predicted SNOs for the next 14.0 days since TLE Epoch: 6/16/2022
Index Date (AQUA) Time (AQUA) Lat,Lon (AQUA) SZA (AQUA ) Date (NPP) Time (NPP) Lat,Lon (NPP) SZA (NPP ) Distance(km) Time Diff (sec)
1 06/17/2022 21:53:59 77.76, 97.81 72.03 06/17/2022 21:53:15 77.76, 97.76 72.08 1.09 44
2 06/17/2022 22:43:14 -78.28, -92.14 108.65 06/17/2022 22:43:48 -78.27, -92.26 108.65 2.72 34
3 06/20/2022 13:20:31 -77.80, 46.36 108.03 06/20/2022 13:19:28 -77.81, 46.45 108.01 2.33 63
4 06/20/2022 14:09:45 78.30,-143.66 71.32 06/20/2022 14:10:00 78.30,-143.65 71.30 0.13 15
5 06/23/2022 05:36:20 -78.18, 164.16 108.50 06/23/2022 05:36:17 -78.18, 164.16 108.50 0.19 3
6 06/23/2022 06:24:51 80.27, -14.30 68.39 06/23/2022 06:26:05 80.12, -13.93 68.31 18.57 74
7 06/25/2022 21:02:49 78.19, 112.60 71.57 06/25/2022 21:02:28 78.20, 112.70 71.56 2.47 21
8 06/25/2022 21:52:06 -78.61, -77.62 109.00 06/25/2022 21:53:03 -78.62, -77.57 109.05 1.14 57
9 06/28/2022 12:29:23 -78.07, 60.41 108.15 06/28/2022 12:28:45 -78.08, 60.50 108.14 2.02 38



Historial Predications of SNOs between AQUA and NPP
